Location: D?uga
(50.2667°N, 19.7833°E)
Time: 23:02:50
(UTC+00:00)

BREEZE-M DEB (TANK) - Pass Details

Date: 23 May 2024
Orbit: 289 x 16911 km, 49.4° (Epoch: 22 June)

Event Time Altitude Azimuth Distance (km) Brightness Sun altitude
Exits shadow 00:07:41 23° 240° (WSW) 1,335 4.3 -16.4°
Maximum altitude 00:09:20 31° 198° (SSW) 1,385 4.3 -16.3°
Drops below altitude 10° 00:17:32 10° 141° (SE) 4,665 7.3 -15.7°
Sets 00:25:09 0° 135° (SE) 7,779 8.5 -15.2°
